Time,TemperatureF,DewpointF,PressureIn,WindDirection,WindDirectionDegrees,WindSpeedMPH,WindSpeedGustMPH,Humidity,HourlyPrecipIn,Conditions,Clouds,dailyrainin,SoftwareType,DateUTC
2013-04-29 00:03:00,55.0,54.0,30.11,NNW,340,0.0,0.0,97,0.00,,,1.27,,2013-04-29 04:03:00,
2013-04-29 00:13:00,55.0,54.0,30.11,NNW,340,0.0,0.0,97,0.00,,,1.27,,2013-04-29 04:13:00,
2013-04-29 00:23:00,55.0,54.0,30.12,NNW,340,0.0,0.0,97,0.00,,,1.27,,2013-04-29 04:23:00,
2013-04-29 00:33:00,55.0,54.0,30.12,NNW,340,0.0,0.0,97,0.00,,,1.26,,2013-04-29 04:33:00,
2013-04-29 00:43:00,55.0,54.0,30.12,NNW,340,0.0,0.0,97,0.00,,,1.26,,2013-04-29 04:43:00,
2013-04-29 00:52:00,55.0,54.0,30.12,NNW,340,1.0,2.0,97,0.00,,,1.26,,2013-04-29 04:52:00,
2013-04-29 01:02:00,55.0,54.0,30.12,NNW,340,1.0,2.0,97,0.00,,,1.26,,2013-04-29 05:02:00,
2013-04-29 01:12:00,55.0,54.0,30.12,NNW,340,1.0,2.0,97,0.00,,,1.26,,2013-04-29 05:12:00,
2013-04-29 01:22:00,55.0,54.0,30.12,NNW,340,2.0,3.0,97,0.01,,,1.27,,2013-04-29 05:22:00,
2013-04-29 01:32:00,55.0,54.0,30.11,NE,41,2.0,3.0,97,0.01,,,1.27,,2013-04-29 05:32:00,
2013-04-29 01:42:00,55.0,54.0,30.11,NE,41,2.0,3.0,97,0.01,,,1.27,,2013-04-29 05:42:00,
2013-04-29 01:52:00,55.0,54.0,30.12,North,11,1.0,3.0,97,0.02,,,1.28,,2013-04-29 05:52:00,
2013-04-29 02:02:00,55.0,54.0,30.12,North,11,1.0,3.0,97,0.02,,,1.28,,2013-04-29 06:02:00,
2013-04-29 02:12:00,55.0,54.0,30.12,North,11,1.0,3.0,97,0.02,,,1.28,,2013-04-29 06:12:00,
2013-04-29 02:22:00,55.0,54.0,30.12,North,11,1.0,3.0,97,0.02,,,1.28,,2013-04-29 06:22:00,
2013-04-29 02:32:00,55.0,54.0,30.09,North,11,0.0,1.0,97,0.02,,,1.29,,2013-04-29 06:32:00,
2013-04-29 02:42:00,55.0,54.0,30.09,North,11,0.0,1.0,97,0.02,,,1.29,,2013-04-29 06:42:00,
2013-04-29 02:52:00,55.0,54.0,30.10,NNE,12,0.0,0.0,97,0.01,,,1.29,,2013-04-29 06:52:00,
2013-04-29 03:02:00,55.0,54.0,30.10,NNE,12,0.0,0.0,97,0.02,,,1.30,,2013-04-29 07:02:00,
2013-04-29 03:11:00,55.0,54.0,30.10,NNE,12,0.0,0.0,97,0.02,,,1.30,,2013-04-29 07:11:00,
2013-04-29 03:21:00,55.0,54.0,30.10,NNE,12,0.0,0.0,97,0.03,,,1.32,,2013-04-29 07:21:00,
2013-04-29 03:32:00,55.0,54.0,30.10,NNE,12,0.0,0.0,97,0.04,,,1.33,,2013-04-29 07:32:00,
2013-04-29 03:42:00,55.0,54.0,30.10,NNE,12,0.0,0.0,97,0.04,,,1.33,,2013-04-29 07:42:00,
2013-04-29 03:52:00,55.0,54.0,30.08,North,11,0.0,0.0,97,0.05,,,1.34,,2013-04-29 07:52:00,
2013-04-29 04:03:00,55.0,54.0,30.08,NNE,12,0.0,0.0,97,0.04,,,1.34,,2013-04-29 08:03:00,
2013-04-29 04:11:00,55.0,54.0,30.08,NNE,12,0.0,0.0,97,0.04,,,1.34,,2013-04-29 08:11:00,
2013-04-29 04:21:00,55.0,54.0,30.06,North,11,2.0,2.0,97,0.03,,,1.35,,2013-04-29 08:21:00,
2013-04-29 04:32:00,55.0,54.0,30.06,NNE,12,0.0,1.0,97,0.02,,,1.35,,2013-04-29 08:32:00,
2013-04-29 04:42:00,55.0,54.0,30.06,NNE,12,0.0,1.0,97,0.02,,,1.35,,2013-04-29 08:42:00,
2013-04-29 04:52:00,55.0,54.0,30.08,North,11,0.0,2.0,97,0.01,,,1.35,,2013-04-29 08:52:00,
2013-04-29 05:01:00,55.0,54.0,30.08,NNE,12,0.0,1.0,97,0.01,,,1.35,,2013-04-29 09:01:00,
2013-04-29 05:12:00,55.0,54.0,30.08,NNE,12,0.0,1.0,97,0.01,,,1.35,,2013-04-29 09:12:00,
2013-04-29 05:21:00,55.0,54.0,30.08,North,11,0.0,0.0,97,0.01,,,1.36,,2013-04-29 09:21:00,
2013-04-29 05:33:00,55.0,54.0,30.08,North,11,0.0,0.0,97,0.01,,,1.36,,2013-04-29 09:33:00,
2013-04-29 05:42:00,55.0,54.0,30.08,North,11,0.0,0.0,97,0.01,,,1.36,,2013-04-29 09:42:00,
2013-04-29 05:53:00,55.0,54.0,30.08,North,11,0.0,0.0,97,0.01,,,1.36,,2013-04-29 09:53:00,
2013-04-29 06:02:00,55.0,54.0,30.08,North,11,0.0,0.0,97,0.01,,,1.36,,2013-04-29 10:02:00,
2013-04-29 06:12:00,55.0,54.0,30.08,North,11,0.0,0.0,97,0.01,,,1.36,,2013-04-29 10:12:00,
2013-04-29 06:23:00,55.0,54.0,30.07,NNE,12,0.0,0.0,97,0.00,,,1.36,,2013-04-29 10:23:00,
2013-04-29 06:32:00,55.0,54.0,30.07,NNE,12,0.0,1.0,97,0.00,,,1.36,,2013-04-29 10:32:00,
2013-04-29 06:42:00,55.0,54.0,30.07,NNE,12,0.0,1.0,97,0.00,,,1.36,,2013-04-29 10:42:00,
2013-04-29 06:52:00,55.0,54.0,30.08,North,11,0.0,1.0,97,0.00,,,1.36,,2013-04-29 10:52:00,
2013-04-29 07:03:00,55.0,54.0,30.09,NNE,12,0.0,0.0,97,0.00,,,1.36,,2013-04-29 11:03:00,
2013-04-29 07:12:00,55.0,54.0,30.09,NNE,12,0.0,0.0,97,0.00,,,1.36,,2013-04-29 11:12:00,
2013-04-29 07:22:00,55.0,54.0,30.10,North,11,0.0,1.0,97,0.00,,,1.36,,2013-04-29 11:22:00,
2013-04-29 07:32:00,55.0,54.0,30.09,NNE,12,0.0,1.0,97,0.00,,,1.36,,2013-04-29 11:32:00,
2013-04-29 07:42:00,55.0,54.0,30.09,NNE,12,0.0,1.0,97,0.00,,,1.36,,2013-04-29 11:42:00,
2013-04-29 07:52:00,55.0,54.0,30.10,NNE,12,0.0,0.0,97,0.00,,,1.36,,2013-04-29 11:52:00,
2013-04-29 08:01:00,55.0,54.0,30.10,NNE,12,0.0,0.0,97,0.00,,,1.36,,2013-04-29 12:01:00,
2013-04-29 08:12:00,55.0,54.0,30.10,NNE,12,0.0,0.0,97,0.00,,,1.36,,2013-04-29 12:12:00,
2013-04-29 08:22:00,55.0,54.0,30.10,NNE,12,0.0,0.0,97,0.00,,,1.36,,2013-04-29 12:22:00,
2013-04-29 08:32:00,55.0,54.0,30.10,NNE,12,0.0,0.0,97,0.00,,,1.36,,2013-04-29 12:32:00,
2013-04-29 08:42:00,55.0,54.0,30.10,NNE,12,0.0,0.0,97,0.00,,,1.36,,2013-04-29 12:42:00,
2013-04-29 08:52:00,56.0,55.0,30.10,North,11,0.0,2.0,97,0.00,,,1.36,,2013-04-29 12:52:00,
2013-04-29 09:01:00,56.0,55.0,30.10,NNE,12,1.0,2.0,98,0.00,,,1.36,,2013-04-29 13:01:00,
2013-04-29 09:11:00,56.0,55.0,30.10,NNE,12,1.0,2.0,98,0.00,,,1.36,,2013-04-29 13:11:00,
2013-04-29 09:21:00,56.0,55.0,30.10,NE,56,1.0,4.0,97,0.00,,,1.36,,2013-04-29 13:21:00,
2013-04-29 09:32:00,56.0,55.0,30.09,NE,54,0.0,4.0,97,0.00,,,1.36,,2013-04-29 13:32:00,
2013-04-29 09:42:00,56.0,55.0,30.09,NE,54,0.0,4.0,97,0.00,,,1.36,,2013-04-29 13:42:00,
2013-04-29 09:52:00,57.0,56.0,30.10,ENE,59,0.0,1.0,97,0.00,,,1.36,,2013-04-29 13:52:00,
2013-04-29 10:02:00,57.0,56.0,30.10,NE,52,1.0,3.0,97,0.00,,,1.36,,2013-04-29 14:02:00,
2013-04-29 10:12:00,57.0,56.0,30.10,NE,52,1.0,3.0,97,0.00,,,1.36,,2013-04-29 14:12:00,
2013-04-29 10:21:00,57.0,56.0,30.09,NE,52,0.0,1.0,97,0.00,,,1.36,,2013-04-29 14:21:00,
2013-04-29 10:32:00,58.0,57.0,30.09,SE,136,1.0,4.0,97,0.00,,,1.30,,2013-04-29 14:32:00,
2013-04-29 10:42:00,58.0,57.0,30.09,SE,136,1.0,4.0,97,0.00,,,1.30,,2013-04-29 14:42:00,
2013-04-29 10:52:00,58.0,57.0,30.10,SE,136,0.0,2.0,95,0.00,,,1.30,,2013-04-29 14:52:00,
2013-04-29 11:01:00,58.0,57.0,30.10,SSE,150,1.0,2.0,95,0.00,,,1.30,,2013-04-29 15:01:00,
2013-04-29 11:12:00,58.0,57.0,30.10,SSE,150,1.0,2.0,95,0.00,,,1.30,,2013-04-29 15:12:00,
2013-04-29 11:21:00,60.0,58.0,30.10,SSE,160,3.0,4.0,93,0.00,,,1.17,,2013-04-29 15:21:00,
2013-04-29 11:33:00,60.0,58.0,30.11,SSW,201,1.0,4.0,93,0.00,,,1.17,,2013-04-29 15:33:00,
2013-04-29 11:42:00,60.0,58.0,30.11,SSW,201,1.0,4.0,93,0.00,,,1.17,,2013-04-29 15:42:00,
2013-04-29 11:53:00,61.0,58.0,30.10,SSE,159,2.0,4.0,90,0.00,,,1.17,,2013-04-29 15:53:00,
2013-04-29 12:03:00,61.0,58.0,30.10,South,182,2.0,6.0,89,0.00,,,1.17,,2013-04-29 16:03:00,
2013-04-29 12:12:00,61.0,58.0,30.10,South,182,2.0,6.0,89,0.00,,,1.17,,2013-04-29 16:12:00,
2013-04-29 12:23:00,63.0,59.0,30.10,SSE,168,2.0,5.0,88,0.00,,,1.03,,2013-04-29 16:23:00,
2013-04-29 12:33:00,63.0,59.0,30.10,South,172,2.0,5.0,88,0.00,,,1.03,,2013-04-29 16:33:00,
2013-04-29 12:42:00,63.0,59.0,30.10,South,172,2.0,5.0,88,0.00,,,1.03,,2013-04-29 16:42:00,
2013-04-29 12:52:00,63.0,59.0,30.09,SSE,158,2.0,5.0,88,0.00,,,1.03,,2013-04-29 16:52:00,
2013-04-29 13:02:00,63.0,59.0,30.09,SSE,163,1.0,3.0,88,0.00,,,1.03,,2013-04-29 17:02:00,
2013-04-29 13:12:00,63.0,59.0,30.09,SSE,163,1.0,3.0,88,0.00,,,1.03,,2013-04-29 17:12:00,
2013-04-29 13:22:00,64.0,60.0,30.09,South,190,3.0,7.0,88,0.00,,,0.89,,2013-04-29 17:22:00,
2013-04-29 13:32:00,65.0,61.0,30.08,SSE,152,4.0,11.0,86,0.00,,,0.89,,2013-04-29 17:32:00,
2013-04-29 13:42:00,65.0,61.0,30.08,SSE,152,4.0,11.0,86,0.00,,,0.89,,2013-04-29 17:42:00,
2013-04-29 13:52:00,66.0,61.0,30.08,SSE,153,5.0,10.0,83,0.00,,,0.89,,2013-04-29 17:52:00,
2013-04-29 14:01:00,65.0,60.0,30.08,SSW,213,6.0,11.0,84,0.00,,,0.89,,2013-04-29 18:01:00,
2013-04-29 14:13:00,65.0,60.0,30.08,SSW,213,6.0,11.0,84,0.00,,,0.89,,2013-04-29 18:13:00,
2013-04-29 14:22:00,67.0,61.0,30.07,SSW,192,4.0,9.0,81,0.00,,,0.80,,2013-04-29 18:22:00,
2013-04-29 14:32:00,67.0,60.0,30.07,West,272,3.0,10.0,78,0.00,,,0.80,,2013-04-29 18:32:00,
2013-04-29 14:42:00,67.0,60.0,30.07,West,272,3.0,10.0,78,0.00,,,0.80,,2013-04-29 18:42:00,
2013-04-29 14:52:00,67.0,59.0,30.06,SSW,197,4.0,10.0,76,0.00,,,0.80,,2013-04-29 18:52:00,
2013-04-29 15:01:00,68.0,60.0,30.06,South,171,5.0,13.0,75,0.00,,,0.80,,2013-04-29 19:01:00,
2013-04-29 15:11:00,68.0,60.0,30.06,South,171,5.0,13.0,75,0.00,,,0.80,,2013-04-29 19:11:00,
2013-04-29 15:22:00,69.0,60.0,30.05,SSW,195,5.0,10.0,74,0.00,,,0.72,,2013-04-29 19:22:00,
2013-04-29 15:32:00,69.0,61.0,30.04,SW,221,5.0,8.0,75,0.00,,,0.72,,2013-04-29 19:32:00,
2013-04-29 15:42:00,69.0,61.0,30.04,SW,221,5.0,8.0,75,0.00,,,0.72,,2013-04-29 19:42:00,
2013-04-29 15:52:00,70.0,61.0,30.03,South,182,1.0,9.0,72,0.00,,,0.72,,2013-04-29 19:52:00,
2013-04-29 16:02:00,70.0,60.0,30.03,SW,234,3.0,7.0,70,0.00,,,0.72,,2013-04-29 20:02:00,
2013-04-29 16:12:00,70.0,60.0,30.03,SW,234,3.0,7.0,70,0.00,,,0.72,,2013-04-29 20:12:00,
2013-04-29 16:22:00,70.0,59.0,30.02,West,262,4.0,11.0,69,0.00,,,0.68,,2013-04-29 20:22:00,
2013-04-29 16:32:00,71.0,61.0,30.01,South,171,3.0,9.0,70,0.00,,,0.68,,2013-04-29 20:32:00,
2013-04-29 16:42:00,71.0,61.0,30.01,South,171,3.0,9.0,70,0.00,,,0.68,,2013-04-29 20:42:00,
2013-04-29 16:52:00,71.0,61.0,30.01,SSE,154,4.0,8.0,70,0.00,,,0.68,,2013-04-29 20:52:00,
2013-04-29 17:01:00,70.0,60.0,30.01,SSW,193,2.0,4.0,71,0.00,,,0.68,,2013-04-29 21:01:00,
2013-04-29 17:11:00,70.0,60.0,30.01,SSW,193,2.0,4.0,71,0.00,,,0.68,,2013-04-29 21:11:00,
2013-04-29 17:22:00,71.0,61.0,30.00,SSE,151,1.0,7.0,71,0.00,,,0.57,,2013-04-29 21:22:00,
2013-04-29 17:33:00,71.0,59.0,30.00,South,178,3.0,12.0,67,0.00,,,0.57,,2013-04-29 21:33:00,
2013-04-29 17:43:00,71.0,59.0,30.00,South,178,3.0,12.0,67,0.00,,,0.57,,2013-04-29 21:43:00,
2013-04-29 17:53:00,72.0,60.0,30.00,South,169,4.0,10.0,66,0.00,,,0.57,,2013-04-29 21:53:00,
2013-04-29 18:02:00,72.0,60.0,30.00,SSE,161,5.0,9.0,67,0.00,,,0.57,,2013-04-29 22:02:00,
2013-04-29 18:13:00,72.0,60.0,30.00,SSE,161,5.0,9.0,67,0.00,,,0.57,,2013-04-29 22:13:00,
2013-04-29 18:23:00,72.0,61.0,30.00,SSE,157,2.0,7.0,68,0.00,,,0.46,,2013-04-29 22:23:00,
2013-04-29 18:32:00,71.0,60.0,30.00,South,171,2.0,6.0,69,0.00,,,0.46,,2013-04-29 22:32:00,
2013-04-29 18:42:00,71.0,60.0,30.00,South,171,2.0,6.0,69,0.00,,,0.46,,2013-04-29 22:42:00,
2013-04-29 18:53:00,70.0,60.0,30.01,SW,223,1.0,5.0,71,0.00,,,0.46,,2013-04-29 22:53:00,
2013-04-29 19:02:00,70.0,61.0,30.00,South,182,0.0,3.0,73,0.00,,,0.46,,2013-04-29 23:02:00,
2013-04-29 19:12:00,70.0,61.0,30.00,South,182,0.0,3.0,73,0.00,,,0.46,,2013-04-29 23:12:00,
2013-04-29 19:22:00,69.0,61.0,30.01,South,182,0.0,1.0,76,0.00,,,0.41,,2013-04-29 23:22:00,
2013-04-29 19:32:00,68.0,61.0,30.01,South,182,0.0,0.0,77,0.00,,,0.41,,2013-04-29 23:32:00,
2013-04-29 19:42:00,68.0,61.0,30.01,South,182,0.0,0.0,77,0.00,,,0.41,,2013-04-29 23:42:00,
2013-04-29 19:53:00,68.0,62.0,30.02,South,182,0.0,0.0,80,0.00,,,0.41,,2013-04-29 23:53:00,
2013-04-29 20:01:00,67.0,61.0,30.02,South,182,0.0,0.0,82,0.00,,,0.41,,2013-04-30 00:01:00,
2013-04-29 20:11:00,67.0,61.0,30.02,South,182,0.0,0.0,82,0.00,,,0.41,,2013-04-30 00:11:00,
2013-04-29 20:21:00,66.0,61.0,30.03,South,182,0.0,0.0,85,0.00,,,0.23,,2013-04-30 00:21:00,
2013-04-29 20:32:00,66.0,62.0,30.03,South,182,0.0,0.0,86,0.00,,,0.23,,2013-04-30 00:32:00,
2013-04-29 20:42:00,66.0,62.0,30.03,South,182,0.0,0.0,86,0.00,,,0.23,,2013-04-30 00:42:00,
2013-04-29 20:52:00,65.0,61.0,30.04,South,182,0.0,0.0,88,0.00,,,0.23,,2013-04-30 00:52:00,
2013-04-29 21:02:00,65.0,62.0,30.04,South,182,0.0,0.0,89,0.00,,,0.23,,2013-04-30 01:02:00,
2013-04-29 21:11:00,65.0,62.0,30.04,South,182,0.0,0.0,89,0.00,,,0.23,,2013-04-30 01:11:00,
2013-04-29 21:22:00,64.0,61.0,30.04,South,182,0.0,0.0,91,0.00,,,0.15,,2013-04-30 01:22:00,
2013-04-29 21:32:00,63.0,60.0,30.05,South,182,0.0,0.0,91,0.00,,,0.15,,2013-04-30 01:32:00,
2013-04-29 21:41:00,63.0,60.0,30.05,South,182,0.0,0.0,91,0.00,,,0.15,,2013-04-30 01:41:00,
2013-04-29 21:52:00,62.0,60.0,30.05,South,182,0.0,0.0,93,0.00,,,0.15,,2013-04-30 01:52:00,
2013-04-29 22:01:00,62.0,60.0,30.06,South,182,0.0,0.0,93,0.00,,,0.15,,2013-04-30 02:01:00,
2013-04-29 22:11:00,62.0,60.0,30.06,South,182,0.0,0.0,93,0.00,,,0.15,,2013-04-30 02:11:00,
2013-04-29 22:21:00,61.0,59.0,30.06,South,182,0.0,0.0,94,0.00,,,0.10,,2013-04-30 02:21:00,
2013-04-29 22:31:00,60.0,58.0,30.07,South,182,0.0,0.0,94,0.00,,,0.10,,2013-04-30 02:31:00,
2013-04-29 22:41:00,60.0,58.0,30.07,South,182,0.0,0.0,94,0.00,,,0.10,,2013-04-30 02:41:00,
2013-04-29 22:52:00,60.0,59.0,30.07,South,182,0.0,0.0,95,0.00,,,0.10,,2013-04-30 02:52:00,
2013-04-29 23:01:00,59.0,58.0,30.07,South,182,0.0,0.0,95,0.00,,,0.10,,2013-04-30 03:01:00,
2013-04-29 23:11:00,59.0,58.0,30.07,South,182,0.0,0.0,95,0.00,,,0.10,,2013-04-30 03:11:00,
2013-04-29 23:21:00,59.0,58.0,30.07,South,182,0.0,0.0,95,0.00,,,0.10,,2013-04-30 03:21:00,
2013-04-29 23:33:00,59.0,58.0,30.07,South,182,0.0,0.0,95,0.00,,,0.10,,2013-04-30 03:33:00,
2013-04-29 23:43:00,59.0,58.0,30.07,South,182,0.0,0.0,95,0.00,,,0.10,,2013-04-30 03:43:00,
2013-04-29 23:52:00,58.0,57.0,30.07,South,182,0.0,2.0,95,0.00,,,0.10,,2013-04-30 03:52:00,